www.pogodaiklimat.ru

ПОГОДА в Кламат-Фолсе, OR

  • Прогноз погоды в Кламат-Фолсе
  • Монитор погоды в Кламат-Фолсе
  • Климат в Кламат-Фолсе

АРХИВ ПОГОДЫ в Кламат-Фолсе

Время (UTC), дата Ветер
(напр.,м/с)
 
Видим.   Явления Облачность Т
(С)
Тd
(С)
f
(%)
Тe
(С)
Тes
(С)
Комфортность

P
(гПа)

Po
(гПа)
Тmin
(С)
Tmax
(С)
R
(мм)
SD
(см)
16:53 14.06 СЗ  16 км    ясно  +23.9  +3.3  26  +23  +34  комфорт  1013.3  876.0  +7.2  +23.9     
17:53 14.06 З  16 км    ясно  +24.4  +4.4  27  +24  +34  комфорт  1014.0  876.0         
18:53 14.06 нст  16 км    ясно  +26.1  +1.1  20  +25  +45  комфорт  1013.4  875.4         
19:53 14.06 З  16 км    ясно  +27.8  -1.7  14  +25  +35  комфорт  1012.7  875.1         
20:53 14.06 СЗ  4
{8} 
16 км    ясно  +28.9  -2.8  12  +26  +35  жарко  1012.3  874.8         
21:53 14.06 С  16 км    ясно  +28.9  +0.6  16  +26  +44  жарко  1012.0  874.6         
22:53 14.06 С  16 км    ясно  +28.9  +2.2  18  +27  +41  жарко  1011.7  874.3  +23.3  +30.0     
23:53 14.06 СЗ  16 км    ясно  +28.9  +4.4  21  +27  +30  жарко  1011.4  873.7         
00:53 15.06 С  16 км    ясно  +27.2  +5.0  24  +26  +27  жарко  1011.1  873.7         
01:53 15.06 С  16 км    ясно  +25.0  +5.6  29  +25  +25  комфорт  1011.5  874.3         
02:53 15.06 З  16 км    ясно  +21.1  +7.2  41  +22  +22  комфорт  1012.0  874.6         
03:53 15.06 Ю  16 км    ясно  +16.7  +7.8  56  +17  +17    1013.1  875.1         
04:53 15.06 С  16 км    ясно  +18.3  +7.8  50  +19  +19    1012.9  875.4  +16.1  +29.4     
05:53 15.06 СЗ  16 км    ясно  +15.0  +7.8  62  +15  +15    1013.4  875.7         
06:53 15.06   16 км    ясно  +12.8  +8.3  74  +12  +12    1013.9  876.0         
07:53 15.06   16 км    ясно  +10.0  +6.1  77  +9  +9    1014.1  876.0         
08:53 15.06   16 км    ясно  +8.3  +5.6  83  +8  +8    1014.0  876.0         
09:53 15.06   16 км    ясно  +7.2  +5.6  90  +6  +6    1014.0  875.7         
10:53 15.06   16 км    ясно  +7.2  +5.6  90  +6  +6    1014.2  876.0  +6.1  +18.9     
11:53 15.06   16 км    ясно  +7.8  +5.0  82  +7  +7    1014.2  876.0         
12:53 15.06   16 км    ясно  +11.7  +7.8  77  +11  +11    1013.9  876.0         
13:53 15.06   16 км    ясно  +16.1  +8.3  60  +16  +18    1013.8  876.0         
14:53 15.06   16 км    ясно  +18.9  +10.0  56  +19  +25    1013.8  876.0         
15:53 15.06   16 км    ясно  +21.7  +8.9  44  +23  +33  комфорт  1013.8  875.7         
16:53 15.06 нст  16 км    ясно  +24.4  +7.8  35  +25  +38  комфорт  1013.0  875.7  +5.6  +24.4     
17:53 15.06 ЮВ  16 км    ясно  +25.0  +5.0  28  +25  +39  комфорт  1013.3  875.7         
18:53 15.06   16 км    ясно  +27.2  0.0  17  +25  +50  комфорт  1013.0  875.4         
19:53 15.06 нст  16 км    ясно  +27.2  0.0  17  +25  +43  комфорт  1013.0  875.1         
20:53 15.06 нст  16 км    ясно  +28.3  +1.7  18  +26  +44  жарко  1012.5  874.6         
21:53 15.06 нст  16 км    ясно  +27.8  +2.8  20  +26  +44  жарко  1012.3  874.3         
22:53 15.06 З  16 км    ясно  +28.9  +2.8  19  +27  +35  жарко  1011.7  874.0  +23.9  +28.9     
23:53 15.06 СЗ  16 км    ясно  +28.3  +0.6  17  +26  +31  жарко  1011.4  873.7         
00:53 16.06 СЗ  16 км    ясно  +27.2  +2.2  20  +26  +27  жарко  1011.3  873.7         
01:53 16.06 З  16 км    ясно  +25.0  +5.6  29  +25  +26  комфорт  1011.4  874.0         
02:53 16.06 СЗ  16 км    ясно  +23.3  +7.8  37  +24  +24  комфорт  1011.5  874.3         
03:53 16.06 З  16 км    ясно  +20.0  +7.8  45  +21  +21  комфорт  1012.1  874.8         
04:53 16.06 З  16 км    ясно  +19.4  +7.8  47  +20  +20    1012.2  875.1  +18.3  +29.4     
05:53 16.06 З  16 км    ясно  +17.2  +8.3  56  +17  +17    1012.5  875.1         
06:53 16.06   16 км    ясно  +14.4  +8.3  67  +14  +14    1012.6  875.1         
07:53 16.06   16 км    ясно  +12.8  +9.4  80  +12  +12    1012.6  875.1         
08:53 16.06   16 км    ясно  +10.0  +7.8  86  +9  +9    1012.7  874.8         
09:53 16.06   16 км    ясно  +11.1  +7.8  80  +11  +11    1012.7  874.8         
11:53 16.06   16 км    ясно  +10.0  +7.2  83  +9  +9    1013.1  875.4         
12:53 16.06   16 км    ясно  +13.3  +8.3  72  +13  +13    1013.3  875.7         
13:53 16.06 СЗ  16 км    ясно  +18.9  +8.3  50  +19  +20    1013.0  875.7         
14:53 16.06 СЗ  16 км    ясно  +21.1  +7.8  42  +22  +25  комфорт  1012.9  875.7         
15:53 16.06   16 км    ясно  +22.8  +6.1  34  +23  +34  комфорт  1012.9  875.4         
16:53 16.06 В  16 км    ясно  +25.0  +5.0  28  +25  +37  комфорт  1012.2  875.1  +7.8  +25.0     

 

Местоположение метеостанции Klamath Falls International Airport: широта 42.1469 долгота -121.7242 высота над уровнем моря 1247 м.

В архиве по умолчанию представлена погода в Кламат-Фолсе за последние 1-2 суток. Обновление информации о фактической погоде в базе происходит ежечасно! Архивные данные за месяц целиком и за предыдущие месяцы Вы можете получить, выбрав интересующий диапазон дат из раскрывающегося списка и нажав кнопку "Ввод!".

Внимание! Архив погоды МЕТАР в базе сайта хранится не более 60 дней. Нет смысла пытаться выбрать более раннюю дату.

Внимание! Время в таблицах - всемирное. Для получения местного времени необходимо прибавить поправку, которая в Кламат-Фолсе равна -8 ч.

Ветер - указаны скорость ветра в м/с и направление, откуда дует ветер: С - северный, СВ - северо-восточный, В - восточный, ЮВ - юго-восточный, Ю - южный, ЮЗ - юго-западный, З - западный, СЗ - северо-западный.
Видимость - горизонтальная дальность видимости в метрах или километрах. При видимости от 1 до 10 км при отсутствии осадков обычно наблюдается дымка, при ухудшении видимости до 1 км и менее - туман. В сухую погоду видимость может ухудшаться дымом, пылью или мглою.
Атмосферные явления - указаны явления, наблюдавшиеся в указанный момент времени.
Облачность - указаны через наклонную черту верхняя и нижняя облачность в баллах и высота нижней границы облаков в метрах. Внимание: облачность, как и прочие метеорологические величины в США измеряются автоматическими метеостанциями. Указанные значения в баллах носят условный характер и показывают процент времени, в течение которого, в среднем, лазерный луч высотомера отражался от облаков обратно.
T - Температура воздуха - температура, измеренная на высоте 2 м над землей.
Td - Температура точки росы - температура, при понижении до которой содержащийся в воздухе водяной пар достигнет насыщения.
f - Относительная влажность воздуха - влажноcть воздуха, измеренная на высоте 2 м над землей.
Te - Эффективная температура - температура, которую ощущает одетый по сезону человек в тени. Характеристика душности погоды. При расчете учитывается влияние влажности воздуха и скорости ветра на теплоощущения человека.
Tes - Эффективная температура на солнце - температура, которую ощущает человек, с поправкой на солнечный нагрев. Характеристика знойности погоды. Зависит от высоты солнца над горизонтом, облачности и скорости ветра. Ночью, в пасмурную погоду, а также при ветре 12 м/с и более поправка равна нулю.
P - Атмосферное давление - приведенное к уровню моря атмосферное давление.
Po - Атмосферное давление - измеренное на уровне метеостанции атмосферное давление.
Tmin - Минимальная температура - минимум температуры воздуха на высоте 2 м над землей.
Tmax - Максимальная температура - максимум температуры воздуха на высоте 2 м над землей.
R - Количество осадков - Количество выпавших осадков за 3 или 6 часов, мм.
SD - Снежный покров - Высота снежного покрова, см.